Tracking 29059 objects as of 19-Jun-2024
HD Live streaming from Space Station
objects crossing your sky now

COSMOS 2491 DEB

Track COSMOS 2491 DEB now!
10-day predictions


NORAD ID: 45130
Int'l Code: 2013-076AB
Perigee: 1,312.9 km
Apogee: 1,494.2 km
Inclination: 82.5 °
Period: 113.7 minutes
Semi major axis: 7774 km
RCS: Unknown
Launch date: December 25, 2013
Source: Commonwealth of Independent States (former USSR) (CIS)
Launch site: PLESETSK MISSILE AND SPACE COMPLEX (PKMTR)

Note: This is SATELLITE DEBRIS
Your satellite tracking list
Your tracking list is empty




NASA's NSSDC Master Catalog

Two Line Element Set (TLE):
1 45130U 13076AC  24168.43236803  .00002535  00000-0  12994-1 0  9991
2 45130  82.4514 223.1095 0116590  24.1582 336.4918 12.66464667201965
Source of the keplerian elements: AFSPC